Regional Weather Roundup
Issued by NWS Charleston, SC

Current Version | Previous Version | Graphics & Text | Print | Product List | Glossary On
Versions: 1 2 3 4 5 6 7 8 9 10 11 12 13 14 15 16 17 18 19 20 21 22 23 24 25 26 27 28 29 30 31 32 33 34 35 36 37 38 39 40 41 42 43 44 45 46 47 48 49 50
000
ASUS42 KCHS 251027
RWRCHS

REGIONAL WEATHER ROUNDUP
NATIONAL WEATHER SERVICE CHARLESTON SC
600 AM EDT SAT APR 25 2015

NOTE: "FAIR" INDICATES FEW OR NO CLOUDS BELOW 12,000 FEET WITH NO
SIGNIFICANT WEATHER AND/OR OBSTRUCTIONS TO VISIBILITY.

NOT ALL STATIONS ARE QUALITY CONTROLLED BY THE NATIONAL
WEATHER SERVICE. USE DATA WITH CAUTION...ESPECIALLY
DEWPOINT OBSERVATIONS.

SCZ027-030-031-034>040-042>050-251100-
...SOUTHEAST SOUTH CAROLINA...

CITY           SKY/WX    TMP DP  RH WIND       PRES   REMARKS
N CHARLESTON   CLOUDY    62  53  72 CALM      29.95R
WATERFRONT PRK   N/A     66 N/A N/A S6          N/A
MOUNT PLEASANT FAIR      57  57 100 MISG      29.96R
PINOPOLIS      NOT AVBL
MONCKS CORNER  LGT RAIN  57  54  88 CALM      29.96R
SUMMERVILLE    LGT RAIN  55  55 100 CALM      29.97R
BEAUFORT MCAS  CLOUDY    66  59  78 E5        29.93R
BEAUFORT ARPT  FAIR      64  61  88 CALM      29.93S
HILTON HEAD IS NOT AVBL
WALTERBORO     CLOUDY    57  54  88 E3        29.95S
ALLENDALE      FAIR      59  54  82 CALM      29.92S

...SOUTHERN MIDLANDS AND PEE DEE...

CITY           SKY/WX    TMP DP  RH WIND       PRES   REMARKS
GEORGETOWN     NOT AVBL
KINGSTREE      NOT AVBL
ORANGEBURG     LGT RAIN  57  53  86 CALM      29.96R
BARNWELL       FAIR      57  54  88 CALM      29.93F
AIKEN          PTSUNNY   55  50  82 CALM      29.95F
MANNING        LGT RAIN  55  14  19 S3        29.95R
COLUMBIA       LGT RAIN  57  51  80 SW3       29.93R
SUMTER         LGT RAIN  58  51  76 SW6       29.92R
FLORENCE       LGT RAIN  56  50  80 SW7       29.93R
MYRTLE BEACH   CLOUDY    61  48  63 S3        29.95F
N MYRTLE BEACH MOCLDY    55  51  86 CALM      29.93S

$$

GAZ063-065-086>088-099>101-113>116-118-119-134>141-150-251100-
...SOUTHEAST GEORGIA...

CITY           SKY/WX    TMP DP  RH WIND       PRES   REMARKS
SAVANNAH ARPT  CLOUDY    66  58  75 E3        29.91S
HUNTER AAF     CLOUDY    68  62  81 SE5       29.89R
FORT STEWART   MOCLDY    60  56  87 CALM      29.88F
STATESBORO       N/A     61  55  80 CALM      29.91S
SYLVANIA       CLOUDY    60  56  89 CALM      29.92F
CLAXTON        FAIR      59  57  94 CALM      29.91R

...CSRA...CENTRAL AND FAR SOUTHEAST GEORGIA...

CITY           SKY/WX    TMP DP  RH WIND       PRES   REMARKS
THOMSON        CLOUDY    60  57  91 CALM      29.96R
AUGUSTA-BUSH   CLOUDY    57  53  86 CALM      29.91F
AUGUSTA-DANIEL CLOUDY    59  51  75 E7        29.91F
SWAINSBORO     NOT AVBL
VIDALIA        CLOUDY    61  55  82 CALM      29.91R
EASTMAN        FAIR      62  58  86 SE3       29.92R
HAZLEHURST     FAIR      63  59  86 S5        29.89S FOG
ALMA           MOCLDY    61  57  87 SE5       29.89S
WAYCROSS       MOCLDY    64  62  92 SW3       29.90S
JESUP          FAIR      59  57  94 CALM      29.90S
BAXLEY         FAIR      61  59  94 SW3       29.90R
BRUNSWICK      MOCLDY    70  63  78 S3        29.91S
SAINT SIMONS   MOCLDY    70  64  81 S7        29.90S

$$

SCZ027-028-034-036>038-045-046-048>050-GAZ119-141-251100-
...LAKE AND SUPPLEMENTAL COASTAL OBSERVATIONS...

STATION/POSITION TIME  TEMP    WIND        PRES    WAVE   SWELL
                       AIR SEA DIR/SP/G            HT/PER HT/PER/DIR
                 (UTC) (F)     (DEG/KT/KT) (MB)    (FT/S) (FT/S/D)
UPR LAKE MARION  NOT AVBL
WINYAH BAY       0945   59     260/  2     1013.0S
LAKE MURRAY      0900   63     210/  8/ 11 1012.9R
ACE BASIN NERRS  NOT AVBL
FORT PULASKI     1000   68 70  140/  3/  5 1013.5R
SAPELO ISLAND    1000   69     150/  6     1012.0S

$$

ANZ835-935-AMZ111-154-330-350-352-354-370-450-454-472-251100-
...C-MAN AND BUOY OBSERVATIONS...

STATION/POSITION TIME  TEMP    WIND        PRES    WAVE   SWELL
                       AIR SEA DIR/SP/G            HT/PER HT/PER/DIR
                 (UTC) (F)     (DEG/KT/KT) (MB)    (FT/S) (FT/S/D)
BUOY 41004       0950   70 71  170/ 10/ 14 1013.8R   3/ 9   2/ 9
BUOY 41008       0950   70 69  150/  6/  8 1013.2S   2/ 9   2/ 80/ 9
FOLLY BEACH CMAN 1000   69     170/  8/  9 1013.9R
CAPERS NEARSHORE 0908   69     180/  8/ 10   N/A
FRIPP NEARSHORE  0900   69     170/ 10/ 12 1012.9F


STATION/POSITION TIME  TEMP    WIND        PRES    WAVE   SWELL
                       AIR SEA DIR/SP/G            HT/PER HT/PER/DIR
                 (UTC) (F)     (DEG/KT/KT) (MB)    (FT/S) (FT/S/D)
5E ST. MARYS GA  0921      70                N/A     3/ 9   2/100/15
FRYING PAN BUOY  0950   68 71  200/ 10/ 12 1014.5F   3/ 8   2/ 80/ 8
BUOY 41025       0950   64 70  260/ 17/ 19 1013.1F   4/ 9   3/ 60/ 9
CAPE LOOKOUT NC  1000   61     260/  8/  9 1013.6R
BUOY 41002       0950   63 70  170/  2/  4 1016.2R   7/10   7/ 20/10
BUOY 41010       0920   74 78  120/  8/ 10 1014.4F
ST AUGUSTINE FL  1000   72 68  170/ 11/ 12 1013.7R


$$



USA.gov is the U.S. government's official web portal to all federal, state and local government web resources and services.